Wetterdaten: Freitag, 04.12.2015
Datum Zeit Temp. A. Feuchte A. Luftdruck Regen Wind Richtung Richtung Sonnenschein ET UV Solar Taupunkt Windchill Windben Empfang
04.12.2015 00:00 -0,2 C 97 % 1028,8 hPa 0,0 l/m 1,5 km/h (1 Bft) N-NO 28 0 min 0,000 mm 0,0 UV-I 0 W/m -0,6 C -0,2 C 3,2 km/h (1 Bft) 95,61 %
04.12.2015 00:05 -0,3 C 97 % 1028,8 hPa 0,0 l/m 2,8 km/h (1 Bft) O-NO 69 0 min 0,000 mm 0,0 UV-I 0 W/m -0,7 C -0,3 C 4,8 km/h (1 Bft) 95,61 %
04.12.2015 00:10 -0,3 C 97 % 1028,6 hPa 0,0 l/m 0,6 km/h (0 Bft) O-NO 69 0 min 0,000 mm 0,0 UV-I 0 W/m -0,7 C -0,3 C 3,2 km/h (1 Bft) 96,67 %
04.12.2015 00:15 -0,2 C 97 % 1028,7 hPa 0,0 l/m 1,2 km/h (1 Bft) O-NO 69 0 min 0,000 mm 0,0 UV-I 0 W/m -0,6 C -0,2 C 3,2 km/h (1 Bft) 97,25 %
04.12.2015 00:20 -0,2 C 97 % 1028,5 hPa 0,0 l/m 1,9 km/h (1 Bft) O-NO 69 0 min 0,000 mm 0,0 UV-I 0 W/m -0,6 C -0,2 C 4,8 km/h (1 Bft) 97,46 %
04.12.2015 00:25 -0,3 C 97 % 1028,5 hPa 0,0 l/m 3,2 km/h (1 Bft) O-NO 72 0 min 0,000 mm 0,0 UV-I 0 W/m -0,7 C -0,3 C 4,8 km/h (1 Bft) 96,58 %
04.12.2015 00:30 -0,2 C 97 % 1028,3 hPa 0,0 l/m 2,7 km/h (1 Bft) O-NO 72 0 min 0,000 mm 0,0 UV-I 0 W/m -0,6 C -0,2 C 3,2 km/h (1 Bft) 99,15 %
04.12.2015 00:35 -0,2 C 97 % 1028,3 hPa 0,0 l/m 1,1 km/h (1 Bft) O-NO 72 0 min 0,000 mm 0,0 UV-I 0 W/m -0,6 C -0,2 C 3,2 km/h (1 Bft) 100,00 %
04.12.2015 00:40 -0,4 C 97 % 1028,3 hPa 0,0 l/m 0,7 km/h (0 Bft) O-NO 72 0 min 0,000 mm 0,0 UV-I 0 W/m -0,8 C -0,4 C 1,6 km/h (1 Bft) 99,15 %
04.12.2015 00:45 -0,5 C 97 % 1028,3 hPa 0,0 l/m 1,0 km/h (0 Bft) O-NO 72 0 min 0,000 mm 0,0 UV-I 0 W/m -0,9 C -0,5 C 1,6 km/h (1 Bft) 98,35 %
04.12.2015 00:50 -0,7 C 97 % 1028,3 hPa 0,0 l/m 0,3 km/h (0 Bft) NO 55 0 min 0,000 mm 0,0 UV-I 0 W/m -1,1 C -0,7 C 1,6 km/h (1 Bft) 99,15 %
04.12.2015 00:55 -0,7 C 97 % 1028,4 hPa 0,0 l/m 0,0 km/h (0 Bft) NO 55 0 min 0,000 mm 0,0 UV-I 0 W/m -1,1 C -0,7 C 0,0 km/h (0 Bft) 100,00 %
04.12.2015 01:00 -0,7 C 97 % 1028,3 hPa 0,0 l/m 0,0 km/h (0 Bft) NO 55 0 min 0,000 mm 0,0 UV-I 0 W/m -1,1 C -0,7 C 1,6 km/h (1 Bft) 99,15 %
04.12.2015 01:05 -0,6 C 97 % 1028,4 hPa 0,0 l/m 0,0 km/h (0 Bft) NO 55 0 min 0,000 mm 0,0 UV-I 0 W/m -1,0 C -0,6 C 0,0 km/h (0 Bft) 98,29 %
04.12.2015 01:10 -0,4 C 97 % 1028,4 hPa 0,0 l/m 0,1 km/h (0 Bft) NO 55 0 min 0,000 mm 0,0 UV-I 0 W/m -0,8 C -0,4 C 1,6 km/h (1 Bft) 100,00 %
04.12.2015 01:15 -0,3 C 97 % 1028,4 hPa 0,0 l/m 0,1 km/h (0 Bft) NO 55 0 min 0,000 mm 0,0 UV-I 0 W/m -0,7 C -0,3 C 1,6 km/h (1 Bft) 100,00 %
04.12.2015 01:20 -0,3 C 97 % 1028,3 hPa 0,0 l/m 0,6 km/h (0 Bft) NO 55 0 min 0,000 mm 0,0 UV-I 0 W/m -0,7 C -0,3 C 1,6 km/h (1 Bft) 98,15 %
04.12.2015 01:25 -0,4 C 97 % 1028,3 hPa 0,0 l/m 0,9 km/h (0 Bft) NO 55 0 min 0,000 mm 0,0 UV-I 0 W/m -0,8 C -0,4 C 3,2 km/h (1 Bft) 99,15 %
04.12.2015 01:30 -0,4 C 97 % 1028,2 hPa 0,0 l/m 0,0 km/h (0 Bft) NO 55 0 min 0,000 mm 0,0 UV-I 0 W/m -0,8 C -0,4 C 1,6 km/h (1 Bft) 100,00 %
04.12.2015 01:35 -0,4 C 97 % 1028,2 hPa 0,0 l/m 0,3 km/h (0 Bft) NO 55 0 min 0,000 mm 0,0 UV-I 0 W/m -0,8 C -0,4 C 1,6 km/h (1 Bft) 99,15 %
04.12.2015 01:40 -0,4 C 97 % 1028,3 hPa 0,0 l/m 0,1 km/h (0 Bft) NO 55 0 min 0,000 mm 0,0 UV-I 0 W/m -0,8 C -0,4 C 1,6 km/h (1 Bft) 98,32 %
04.12.2015 01:45 -0,4 C 97 % 1028,4 hPa 0,0 l/m 0,3 km/h (0 Bft) NO 55 0 min 0,000 mm 0,0 UV-I 0 W/m -0,8 C -0,4 C 1,6 km/h (1 Bft) 99,07 %
04.12.2015 01:50 -0,6 C 97 % 1028,5 hPa 0,0 l/m 0,4 km/h (0 Bft) NO 55 0 min 0,000 mm 0,0 UV-I 0 W/m -1,0 C -0,6 C 1,6 km/h (1 Bft) 99,16 %
04.12.2015 01:55 -0,7 C 97 % 1028,6 hPa 0,0 l/m 1,7 km/h (1 Bft) W 259 0 min 0,000 mm 0,0 UV-I 0 W/m -1,1 C -0,7 C 3,2 km/h (1 Bft) 99,15 %
04.12.2015 02:00 -0,7 C 97 % 1028,5 hPa 0,0 l/m 2,4 km/h (1 Bft) W 259 0 min 0,000 mm 0,0 UV-I 0 W/m -1,1 C -0,7 C 3,2 km/h (1 Bft) 95,73 %
04.12.2015 02:05 -0,7 C 97 % 1028,4 hPa 0,0 l/m 1,3 km/h (1 Bft) W 259 0 min 0,000 mm 0,0 UV-I 0 W/m -1,1 C -0,7 C 3,2 km/h (1 Bft) 95,87 %
04.12.2015 02:10 -0,6 C 97 % 1028,3 hPa 0,0 l/m 1,1 km/h (1 Bft) S 184 0 min 0,000 mm 0,0 UV-I 0 W/m -1,0 C -0,6 C 3,2 km/h (1 Bft) 95,73 %
04.12.2015 02:15 -0,6 C 98 % 1028,3 hPa 0,0 l/m 1,2 km/h (1 Bft) S 171 0 min 0,000 mm 0,0 UV-I 0 W/m -0,9 C -0,6 C 3,2 km/h (1 Bft) 95,87 %
04.12.2015 02:20 -0,7 C 97 % 1028,2 hPa 0,0 l/m 2,2 km/h (1 Bft) S 181 0 min 0,000 mm 0,0 UV-I 0 W/m -1,1 C -0,7 C 4,8 km/h (1 Bft) 98,11 %
04.12.2015 02:25 -0,7 C 97 % 1028,2 hPa 0,0 l/m 2,2 km/h (1 Bft) S 175 0 min 0,000 mm 0,0 UV-I 0 W/m -1,1 C -0,7 C 4,8 km/h (1 Bft) 96,58 %
04.12.2015 02:30 -0,8 C 97 % 1028,2 hPa 0,0 l/m 3,7 km/h (1 Bft) S 188 0 min 0,000 mm 0,0 UV-I 0 W/m -1,2 C -0,8 C 6,4 km/h (2 Bft) 97,46 %
04.12.2015 02:35 -0,9 C 98 % 1028,2 hPa 0,0 l/m 3,8 km/h (1 Bft) S-SW 196 0 min 0,000 mm 0,0 UV-I 0 W/m -1,2 C -0,9 C 4,8 km/h (1 Bft) 99,15 %
04.12.2015 02:40 -0,8 C 97 % 1028,2 hPa 0,0 l/m 2,1 km/h (1 Bft) S 175 0 min 0,000 mm 0,0 UV-I 0 W/m -1,2 C -0,8 C 4,8 km/h (1 Bft) 95,73 %
04.12.2015 02:45 -0,8 C 97 % 1028,2 hPa 0,0 l/m 1,5 km/h (1 Bft) S 175 0 min 0,000 mm 0,0 UV-I 0 W/m -1,2 C -0,8 C 3,2 km/h (1 Bft) 99,19 %
04.12.2015 02:50 -0,7 C 97 % 1028,3 hPa 0,0 l/m 3,2 km/h (1 Bft) S 176 0 min 0,000 mm 0,0 UV-I 0 W/m -1,1 C -0,7 C 4,8 km/h (1 Bft) 100,00 %
04.12.2015 02:55 -0,7 C 98 % 1028,2 hPa 0,0 l/m 2,4 km/h (1 Bft) S 179 0 min 0,000 mm 0,0 UV-I 0 W/m -1,0 C -0,7 C 4,8 km/h (1 Bft) 99,15 %
04.12.2015 03:00 -0,6 C 98 % 1028,3 hPa 0,0 l/m 2,4 km/h (1 Bft) S 179 0 min 0,000 mm 0,0 UV-I 0 W/m -0,9 C -0,6 C 4,8 km/h (1 Bft) 99,15 %
04.12.2015 03:05 -0,5 C 98 % 1028,3 hPa 0,0 l/m 1,1 km/h (1 Bft) S 179 0 min 0,000 mm 0,0 UV-I 0 W/m -0,8 C -0,5 C 3,2 km/h (1 Bft) 97,44 %
04.12.2015 03:10 -0,4 C 98 % 1028,3 hPa 0,0 l/m 1,4 km/h (1 Bft) S 179 0 min 0,000 mm 0,0 UV-I 0 W/m -0,7 C -0,4 C 4,8 km/h (1 Bft) 100,00 %
04.12.2015 03:15 -0,3 C 98 % 1028,3 hPa 0,0 l/m 2,0 km/h (1 Bft) S 179 0 min 0,000 mm 0,0 UV-I 0 W/m -0,6 C -0,3 C 4,8 km/h (1 Bft) 99,08 %
04.12.2015 03:20 -0,2 C 98 % 1028,3 hPa 0,0 l/m 1,4 km/h (1 Bft) S 179 0 min 0,000 mm 0,0 UV-I 0 W/m -0,5 C -0,2 C 3,2 km/h (1 Bft) 98,29 %
04.12.2015 03:25 -0,2 C 98 % 1028,3 hPa 0,0 l/m 2,3 km/h (1 Bft) S 179 0 min 0,000 mm 0,0 UV-I 0 W/m -0,5 C -0,2 C 4,8 km/h (1 Bft) 99,15 %
04.12.2015 03:30 -0,1 C 98 % 1028,4 hPa 0,0 l/m 1,6 km/h (1 Bft) S 180 0 min 0,000 mm 0,0 UV-I 0 W/m -0,4 C -0,1 C 3,2 km/h (1 Bft) 97,46 %
04.12.2015 03:35 -0,1 C 98 % 1028,4 hPa 0,0 l/m 1,4 km/h (1 Bft) S 180 0 min 0,000 mm 0,0 UV-I 0 W/m -0,4 C -0,1 C 3,2 km/h (1 Bft) 98,29 %
04.12.2015 03:40 0,0 C 98 % 1028,4 hPa 0,0 l/m 0,2 km/h (0 Bft) S 180 0 min 0,000 mm 0,0 UV-I 0 W/m -0,3 C 0,0 C 1,6 km/h (1 Bft) 100,00 %
04.12.2015 03:45 0,0 C 98 % 1028,2 hPa 0,0 l/m 0,5 km/h (0 Bft) S 179 0 min 0,000 mm 0,0 UV-I 0 W/m -0,3 C 0,0 C 3,2 km/h (1 Bft) 99,15 %
04.12.2015 03:50 0,1 C 98 % 1028,1 hPa 0,0 l/m 2,5 km/h (1 Bft) S 182 0 min 0,000 mm 0,0 UV-I 0 W/m -0,2 C 0,1 C 6,4 km/h (2 Bft) 98,11 %
04.12.2015 03:55 0,1 C 98 % 1028,1 hPa 0,0 l/m 1,6 km/h (1 Bft) S 182 0 min 0,000 mm 0,0 UV-I 0 W/m -0,2 C 0,1 C 4,8 km/h (1 Bft) 98,36 %
04.12.2015 04:00 0,1 C 98 % 1028,1 hPa 0,0 l/m 2,8 km/h (1 Bft) S-SW 192 0 min 0,000 mm 0,0 UV-I 0 W/m -0,2 C 0,1 C 6,4 km/h (2 Bft) 95,83 %
04.12.2015 04:05 0,0 C 98 % 1028,1 hPa 0,0 l/m 3,7 km/h (1 Bft) S 188 0 min 0,000 mm 0,0 UV-I 0 W/m -0,3 C 0,0 C 6,4 km/h (2 Bft) 97,03 %
04.12.2015 04:10 -0,2 C 98 % 1028,0 hPa 0,0 l/m 3,9 km/h (1 Bft) S 188 0 min 0,000 mm 0,0 UV-I 0 W/m -0,5 C -0,2 C 6,4 km/h (2 Bft) 95,73 %
04.12.2015 04:15 -0,3 C 98 % 1028,0 hPa 0,0 l/m 2,3 km/h (1 Bft) S 188 0 min 0,000 mm 0,0 UV-I 0 W/m -0,6 C -0,3 C 4,8 km/h (1 Bft) 97,46 %
04.12.2015 04:20 -0,4 C 98 % 1028,1 hPa 0,0 l/m 2,5 km/h (1 Bft) S 188 0 min 0,000 mm 0,0 UV-I 0 W/m -0,7 C -0,4 C 4,8 km/h (1 Bft) 97,32 %
04.12.2015 04:25 -0,4 C 98 % 1028,3 hPa 0,0 l/m 1,7 km/h (1 Bft) S-SW 211 0 min 0,000 mm 0,0 UV-I 0 W/m -0,7 C -0,4 C 3,2 km/h (1 Bft) 95,69 %
04.12.2015 04:30 -0,5 C 98 % 1028,3 hPa 0,0 l/m 3,2 km/h (1 Bft) SW 234 0 min 0,000 mm 0,0 UV-I 0 W/m -0,8 C -0,5 C 6,4 km/h (2 Bft) 95,76 %
04.12.2015 04:35 -0,6 C 98 % 1028,3 hPa 0,0 l/m 3,7 km/h (1 Bft) S-SW 211 0 min 0,000 mm 0,0 UV-I 0 W/m -0,9 C -0,6 C 6,4 km/h (2 Bft) 99,17 %
04.12.2015 04:40 -0,6 C 98 % 1028,3 hPa 0,0 l/m 4,0 km/h (1 Bft) SW 233 0 min 0,000 mm 0,0 UV-I 0 W/m -0,9 C -0,6 C 6,4 km/h (2 Bft) 99,15 %
04.12.2015 04:45 -0,4 C 98 % 1028,3 hPa 0,0 l/m 3,9 km/h (1 Bft) W 259 0 min 0,000 mm 0,0 UV-I 0 W/m -0,7 C -0,4 C 6,4 km/h (2 Bft) 98,35 %
04.12.2015 04:50 -0,3 C 98 % 1028,5 hPa 0,0 l/m 3,2 km/h (1 Bft) W 278 0 min 0,000 mm 0,0 UV-I 0 W/m -0,6 C -0,3 C 4,8 km/h (1 Bft) 99,15 %
04.12.2015 04:55 -0,3 C 98 % 1028,6 hPa 0,0 l/m 2,9 km/h (1 Bft) W 275 0 min 0,000 mm 0,0 UV-I 0 W/m -0,6 C -0,3 C 6,4 km/h (2 Bft) 100,00 %
04.12.2015 05:00 -0,3 C 98 % 1028,7 hPa 0,0 l/m 2,9 km/h (1 Bft) W 268 0 min 0,000 mm 0,0 UV-I 0 W/m -0,6 C -0,3 C 6,4 km/h (2 Bft) 99,17 %
04.12.2015 05:05 -0,3 C 98 % 1028,7 hPa 0,0 l/m 3,6 km/h (1 Bft) W-SW 250 0 min 0,000 mm 0,0 UV-I 0 W/m -0,6 C -0,3 C 6,4 km/h (2 Bft) 100,00 %
04.12.2015 05:10 -0,3 C 98 % 1028,8 hPa 0,0 l/m 3,9 km/h (1 Bft) W-SW 251 0 min 0,000 mm 0,0 UV-I 0 W/m -0,6 C -0,3 C 6,4 km/h (2 Bft) 99,15 %
04.12.2015 05:15 -0,3 C 98 % 1028,9 hPa 0,0 l/m 4,7 km/h (1 Bft) SW 236 0 min 0,000 mm 0,0 UV-I 0 W/m -0,6 C -0,3 C 9,7 km/h (2 Bft) 98,35 %
04.12.2015 05:20 -0,3 C 98 % 1029,0 hPa 0,0 l/m 3,7 km/h (1 Bft) W-SW 240 0 min 0,000 mm 0,0 UV-I 0 W/m -0,6 C -0,3 C 6,4 km/h (2 Bft) 98,29 %
04.12.2015 05:25 -0,3 C 98 % 1029,0 hPa 0,0 l/m 4,5 km/h (1 Bft) SW 225 0 min 0,000 mm 0,0 UV-I 0 W/m -0,6 C -0,3 C 8,0 km/h (2 Bft) 100,00 %
04.12.2015 05:30 -0,3 C 98 % 1029,1 hPa 0,0 l/m 5,1 km/h (1 Bft) SW 229 0 min 0,000 mm 0,0 UV-I 0 W/m -0,6 C -0,3 C 6,4 km/h (2 Bft) 98,31 %
04.12.2015 05:35 -0,4 C 98 % 1029,2 hPa 0,0 l/m 4,0 km/h (1 Bft) SW 228 0 min 0,000 mm 0,0 UV-I 0 W/m -0,7 C -0,4 C 8,0 km/h (2 Bft) 100,00 %
04.12.2015 05:40 -0,4 C 98 % 1029,2 hPa 0,0 l/m 5,0 km/h (1 Bft) W-SW 250 0 min 0,000 mm 0,0 UV-I 0 W/m -0,7 C -0,4 C 9,7 km/h (2 Bft) 99,15 %
04.12.2015 05:45 -0,5 C 98 % 1029,3 hPa 0,0 l/m 5,3 km/h (1 Bft) W-SW 240 0 min 0,000 mm 0,0 UV-I 0 W/m -0,8 C -0,5 C 9,7 km/h (2 Bft) 99,10 %
04.12.2015 05:50 -0,5 C 98 % 1029,3 hPa 0,0 l/m 6,0 km/h (2 Bft) S-SW 204 0 min 0,000 mm 0,0 UV-I 0 W/m -0,8 C -0,5 C 9,7 km/h (2 Bft) 97,46 %
04.12.2015 05:55 -0,5 C 98 % 1029,3 hPa 0,0 l/m 7,5 km/h (2 Bft) SW 215 0 min 0,000 mm 0,0 UV-I 0 W/m -0,8 C -1,7 C 12,9 km/h (3 Bft) 98,35 %
04.12.2015 06:00 -0,5 C 98 % 1029,3 hPa 0,0 l/m 7,4 km/h (2 Bft) S 178 0 min 0,000 mm 0,0 UV-I 0 W/m -0,8 C -1,6 C 11,3 km/h (2 Bft) 97,50 %
04.12.2015 06:05 -0,6 C 98 % 1029,3 hPa 0,0 l/m 8,5 km/h (2 Bft) S-SW 192 0 min 0,000 mm 0,0 UV-I 0 W/m -0,9 C -2,8 C 12,9 km/h (3 Bft) 97,25 %
04.12.2015 06:10 -0,7 C 98 % 1029,3 hPa 0,0 l/m 8,7 km/h (2 Bft) S-SO 167 0 min 0,000 mm 0,0 UV-I 0 W/m -1,0 C -3,1 C 14,5 km/h (3 Bft) 94,50 %
04.12.2015 06:15 -0,7 C 98 % 1029,4 hPa 0,0 l/m 6,8 km/h (2 Bft) S-SW 209 0 min 0,000 mm 0,0 UV-I 0 W/m -1,0 C -1,1 C 11,3 km/h (2 Bft) 96,75 %
04.12.2015 06:20 -0,7 C 98 % 1029,4 hPa 0,0 l/m 8,4 km/h (2 Bft) S 184 0 min 0,000 mm 0,0 UV-I 0 W/m -1,0 C -2,8 C 14,5 km/h (3 Bft) 96,58 %
04.12.2015 06:25 -0,8 C 98 % 1029,4 hPa 0,0 l/m 9,4 km/h (2 Bft) S 187 0 min 0,000 mm 0,0 UV-I 0 W/m -1,1 C -3,8 C 16,1 km/h (3 Bft) 96,67 %
04.12.2015 06:30 -0,9 C 98 % 1029,5 hPa 0,0 l/m 8,6 km/h (2 Bft) S 169 0 min 0,000 mm 0,0 UV-I 0 W/m -1,2 C -3,2 C 14,5 km/h (3 Bft) 95,76 %
04.12.2015 06:35 -0,8 C 98 % 1029,5 hPa 0,0 l/m 4,2 km/h (1 Bft) S 175 0 min 0,000 mm 0,0 UV-I 0 W/m -1,1 C -0,8 C 8,0 km/h (2 Bft) 98,31 %
04.12.2015 06:40 -0,7 C 98 % 1029,6 hPa 0,0 l/m 5,7 km/h (1 Bft) SW 218 0 min 0,000 mm 0,0 UV-I 0 W/m -1,0 C -0,7 C 9,7 km/h (2 Bft) 96,75 %
04.12.2015 06:45 -0,7 C 98 % 1029,6 hPa 0,0 l/m 4,7 km/h (1 Bft) SW 214 0 min 0,000 mm 0,0 UV-I 0 W/m -1,0 C -0,7 C 8,0 km/h (2 Bft) 98,15 %
04.12.2015 06:50 -0,6 C 98 % 1029,8 hPa 0,0 l/m 3,8 km/h (1 Bft) W-SW 251 0 min 0,000 mm 0,0 UV-I 0 W/m -0,9 C -0,6 C 4,8 km/h (1 Bft) 97,46 %
04.12.2015 06:55 -0,6 C 98 % 1029,9 hPa 0,0 l/m 4,9 km/h (1 Bft) W-SW 250 0 min 0,000 mm 0,0 UV-I 0 W/m -0,9 C -0,6 C 8,0 km/h (2 Bft) 97,50 %
04.12.2015 07:00 -0,7 C 98 % 1029,9 hPa 0,0 l/m 3,6 km/h (1 Bft) W-NW 293 0 min 0,000 mm 0,0 UV-I 0 W/m -1,0 C -0,7 C 9,7 km/h (2 Bft) 98,31 %
04.12.2015 07:05 -0,7 C 98 % 1029,9 hPa 0,0 l/m 1,9 km/h (1 Bft) NW 308 0 min 0,000 mm 0,0 UV-I 0 W/m -1,0 C -0,7 C 6,4 km/h (2 Bft) 98,29 %
04.12.2015 07:10 -0,7 C 98 % 1030,0 hPa 0,0 l/m 1,1 km/h (1 Bft) NW 306 0 min 0,000 mm 0,0 UV-I 0 W/m -1,0 C -0,7 C 3,2 km/h (1 Bft) 100,00 %
04.12.2015 07:15 -0,8 C 98 % 1030,0 hPa 0,0 l/m 1,7 km/h (1 Bft) NW 311 0 min 0,000 mm 0,0 UV-I 0 W/m -1,1 C -0,8 C 4,8 km/h (1 Bft) 96,33 %
04.12.2015 07:20 -0,8 C 98 % 1030,1 hPa 0,0 l/m 2,2 km/h (1 Bft) W 279 0 min 0,000 mm 0,0 UV-I 0 W/m -1,1 C -0,8 C 4,8 km/h (1 Bft) 97,44 %
04.12.2015 07:25 -0,8 C 98 % 1030,2 hPa 0,0 l/m 2,4 km/h (1 Bft) W-SW 255 0 min 0,000 mm 0,0 UV-I 0 W/m -1,1 C -0,8 C 4,8 km/h (1 Bft) 100,00 %
04.12.2015 07:30 -0,9 C 98 % 1030,3 hPa 0,0 l/m 3,3 km/h (1 Bft) S-SW 199 0 min 0,000 mm 0,0 UV-I 0 W/m -1,2 C -0,9 C 6,4 km/h (2 Bft) 99,15 %
04.12.2015 07:35 -1,1 C 98 % 1030,3 hPa 0,0 l/m 2,5 km/h (1 Bft) SW 229 0 min 0,000 mm 0,0 UV-I 0 W/m -1,4 C -1,1 C 4,8 km/h (1 Bft) 97,44 %
04.12.2015 07:40 -1,0 C 98 % 1030,3 hPa 0,0 l/m 4,1 km/h (1 Bft) S 188 0 min 0,000 mm 0,0 UV-I 3 W/m -1,3 C -1,0 C 6,4 km/h (2 Bft) 100,00 %
04.12.2015 07:45 -1,0 C 98 % 1030,4 hPa 0,0 l/m 3,2 km/h (1 Bft) S-SW 211 0 min 0,000 mm 0,0 UV-I 6 W/m -1,3 C -1,0 C 6,4 km/h (2 Bft) 98,29 %
04.12.2015 07:50 -1,0 C 98 % 1030,5 hPa 0,0 l/m 2,5 km/h (1 Bft) W 267 0 min 0,000 mm 0,0 UV-I 10 W/m -1,3 C -1,0 C 6,4 km/h (2 Bft) 98,17 %
04.12.2015 07:55 -1,1 C 98 % 1030,6 hPa 0,0 l/m 2,4 km/h (1 Bft) S 191 0 min 0,000 mm 0,0 UV-I 10 W/m -1,4 C -1,1 C 4,8 km/h (1 Bft) 99,19 %
04.12.2015 08:00 -1,1 C 98 % 1030,6 hPa 0,0 l/m 3,1 km/h (1 Bft) S-SW 202 0 min 0,000 mm 0,0 UV-I 12 W/m -1,4 C -1,1 C 6,4 km/h (2 Bft) 98,33 %
04.12.2015 08:05 -1,0 C 98 % 1030,7 hPa 0,0 l/m 1,9 km/h (1 Bft) SW 225 0 min 0,000 mm 0,0 UV-I 17 W/m -1,3 C -1,0 C 4,8 km/h (1 Bft) 96,33 %
04.12.2015 08:10 -1,0 C 98 % 1030,8 hPa 0,0 l/m 2,4 km/h (1 Bft) W 265 0 min 0,000 mm 0,0 UV-I 17 W/m -1,3 C -1,0 C 6,4 km/h (2 Bft) 96,69 %
04.12.2015 08:15 -1,0 C 98 % 1030,8 hPa 0,0 l/m 2,0 km/h (1 Bft) W 264 0 min 0,000 mm 0,0 UV-I 18 W/m -1,3 C -1,0 C 4,8 km/h (1 Bft) 96,58 %
04.12.2015 08:20 -1,0 C 98 % 1030,7 hPa 0,0 l/m 1,2 km/h (1 Bft) W 264 0 min 0,000 mm 0,0 UV-I 19 W/m -1,3 C -1,0 C 3,2 km/h (1 Bft) 96,61 %
04.12.2015 08:25 -1,0 C 98 % 1030,7 hPa 0,0 l/m 1,5 km/h (1 Bft) SO 146 0 min 0,000 mm 0,0 UV-I 28 W/m -1,3 C -1,0 C 4,8 km/h (1 Bft) 97,30 %
04.12.2015 08:30 -1,0 C 98 % 1030,9 hPa 0,0 l/m 1,2 km/h (1 Bft) SO 146 0 min 0,000 mm 0,0 UV-I 38 W/m -1,3 C -1,0 C 3,2 km/h (1 Bft) 98,31 %
04.12.2015 08:35 -1,0 C 98 % 1030,7 hPa 0,0 l/m 2,4 km/h (1 Bft) SO 144 0 min 0,000 mm 0,0 UV-I 37 W/m -1,3 C -1,0 C 4,8 km/h (1 Bft) 96,77 %
04.12.2015 08:40 -1,0 C 98 % 1031,0 hPa 0,0 l/m 2,3 km/h (1 Bft) S-SW 197 0 min 0,000 mm 0,0 UV-I 41 W/m -1,3 C -1,0 C 4,8 km/h (1 Bft) 97,44 %
04.12.2015 08:45 -0,9 C 98 % 1031,1 hPa 0,0 l/m 0,4 km/h (0 Bft) S-SW 196 0 min 0,000 mm 0,0 UV-I 46 W/m -1,2 C -0,9 C 3,2 km/h (1 Bft) 98,31 %
04.12.2015 08:50 -1,0 C 98 % 1031,3 hPa 0,0 l/m 2,4 km/h (1 Bft) W-SW 243 0 min 0,000 mm 0,0 UV-I 47 W/m -1,3 C -1,0 C 4,8 km/h (1 Bft) 99,07 %
04.12.2015 08:55 -0,9 C 98 % 1031,4 hPa 0,0 l/m 1,4 km/h (1 Bft) S-SW 196 0 min 0,000 mm 0,0 UV-I 54 W/m -1,2 C -0,9 C 4,8 km/h (1 Bft) 98,37 %
04.12.2015 09:00 -0,8 C 98 % 1031,4 hPa 0,0 l/m 3,1 km/h (1 Bft) W-SW 247 0 min 0,000 mm 0,0 UV-I 60 W/m -1,1 C -0,8 C 6,4 km/h (2 Bft) 97,46 %
04.12.2015 09:05 -0,8 C 98 % 1031,5 hPa 0,0 l/m 1,4 km/h (1 Bft) W-SW 253 0 min 0,000 mm 0,0 UV-I 63 W/m -1,1 C -0,8 C 4,8 km/h (1 Bft) 99,15 %
04.12.2015 09:10 -0,9 C 98 % 1031,6 hPa 0,0 l/m 2,3 km/h (1 Bft) W-SW 250 0 min 0,000 mm 0,0 UV-I 72 W/m -1,2 C -0,9 C 6,4 km/h (2 Bft) 97,52 %
04.12.2015 09:15 -0,8 C 98 % 1031,8 hPa 0,0 l/m 2,3 km/h (1 Bft) W-NW 293 0 min 0,000 mm 0,0 UV-I 63 W/m -1,1 C -0,8 C 6,4 km/h (2 Bft) 100,00 %
04.12.2015 09:20 -0,8 C 98 % 1031,8 hPa 0,0 l/m 2,6 km/h (1 Bft) W-NW 301 0 min 0,000 mm 0,0 UV-I 65 W/m -1,1 C -0,8 C 4,8 km/h (1 Bft) 100,00 %
04.12.2015 09:25 -0,7 C 98 % 1031,8 hPa 0,0 l/m 2,0 km/h (1 Bft) W 266 0 min 0,000 mm 0,0 UV-I 56 W/m -1,0 C -0,7 C 6,4 km/h (2 Bft) 100,00 %
04.12.2015 09:30 -0,8 C 98 % 1031,8 hPa 0,0 l/m 1,2 km/h (1 Bft) W-NW 283 0 min 0,000 mm 0,0 UV-I 58 W/m -1,1 C -0,8 C 3,2 km/h (1 Bft) 99,15 %
04.12.2015 09:35 -0,7 C 98 % 1031,9 hPa 0,0 l/m 0,9 km/h (0 Bft) W-NW 283 0 min 0,000 mm 0,0 UV-I 61 W/m -1,0 C -0,7 C 3,2 km/h (1 Bft) 97,50 %
04.12.2015 09:40 -0,7 C 98 % 1031,9 hPa 0,2 l/m 2,6 km/h (1 Bft) W-SW 249 0 min 0,000 mm 0,0 UV-I 59 W/m -1,0 C -0,7 C 4,8 km/h (1 Bft) 98,35 %
04.12.2015 09:45 -0,7 C 98 % 1032,0 hPa 0,0 l/m 3,1 km/h (1 Bft) W 270 0 min 0,000 mm 0,0 UV-I 74 W/m -1,0 C -0,7 C 6,4 km/h (2 Bft) 99,07 %
04.12.2015 09:50 -0,5 C 98 % 1032,2 hPa 0,0 l/m 1,7 km/h (1 Bft) W 259 0 min 0,000 mm 0,0 UV-I 75 W/m -0,8 C -0,5 C 4,8 km/h (1 Bft) 99,17 %
04.12.2015 09:55 -0,5 C 98 % 1032,1 hPa 0,0 l/m 2,9 km/h (1 Bft) W-NW 291 0 min 0,000 mm 0,0 UV-I 76 W/m -0,8 C -0,5 C 6,4 km/h (2 Bft) 98,31 %
04.12.2015 10:00 -0,6 C 98 % 1032,1 hPa 0,0 l/m 2,7 km/h (1 Bft) W-NW 300 0 min 0,025 mm 0,0 UV-I 85 W/m -0,9 C -0,6 C 4,8 km/h (1 Bft) 99,15 %
04.12.2015 10:05 -0,4 C 98 % 1032,1 hPa 0,0 l/m 0,7 km/h (0 Bft) S 190 0 min 0,000 mm 0,0 UV-I 97 W/m -0,7 C -0,4 C 3,2 km/h (1 Bft) 96,69 %
04.12.2015 10:10 -0,5 C 98 % 1032,2 hPa 0,0 l/m 3,2 km/h (1 Bft) W-SW 252 0 min 0,000 mm 0,0 UV-I 104 W/m -0,8 C -0,5 C 6,4 km/h (2 Bft) 96,43 %
04.12.2015 10:15 -0,3 C 98 % 1032,2 hPa 0,0 l/m 1,6 km/h (1 Bft) W 272 0 min 0,000 mm 0,0 UV-I 93 W/m -0,6 C -0,3 C 4,8 km/h (1 Bft) 96,58 %
04.12.2015 10:20 -0,3 C 98 % 1032,3 hPa 0,0 l/m 4,1 km/h (1 Bft) SW 225 0 min 0,000 mm 0,0 UV-I 93 W/m -0,6 C -0,3 C 6,4 km/h (2 Bft) 94,92 %
04.12.2015 10:25 -0,4 C 98 % 1032,4 hPa 0,0 l/m 3,2 km/h (1 Bft) W 278 0 min 0,000 mm 0,0 UV-I 86 W/m -0,7 C -0,4 C 6,4 km/h (2 Bft) 97,44 %
04.12.2015 10:30 -0,3 C 98 % 1032,4 hPa 0,0 l/m 2,1 km/h (1 Bft) SW 221 0 min 0,000 mm 0,0 UV-I 102 W/m -0,6 C -0,3 C 4,8 km/h (1 Bft) 96,61 %
04.12.2015 10:35 -0,2 C 98 % 1032,2 hPa 0,0 l/m 3,0 km/h (1 Bft) W-SW 238 0 min 0,000 mm 0,0 UV-I 110 W/m -0,5 C -0,2 C 6,4 km/h (2 Bft) 96,61 %
04.12.2015 10:40 -0,2 C 98 % 1032,2 hPa 0,0 l/m 3,7 km/h (1 Bft) S 186 0 min 0,000 mm 0,0 UV-I 119 W/m -0,5 C -0,2 C 8,0 km/h (2 Bft) 98,29 %
04.12.2015 10:45 -0,2 C 98 % 1032,2 hPa 0,0 l/m 4,2 km/h (1 Bft) W-NW 293 0 min 0,000 mm 0,0 UV-I 111 W/m -0,5 C -0,2 C 6,4 km/h (2 Bft) 97,46 %
04.12.2015 10:50 0,0 C 98 % 1032,1 hPa 0,0 l/m 2,4 km/h (1 Bft) W-SW 252 0 min 0,000 mm 0,0 UV-I 117 W/m -0,3 C 0,0 C 4,8 km/h (1 Bft) 98,11 %
04.12.2015 10:55 0,1 C 98 % 1031,9 hPa 0,0 l/m 3,4 km/h (1 Bft) W-SW 240 0 min 0,000 mm 0,0 UV-I 128 W/m -0,2 C 0,1 C 6,4 km/h (2 Bft) 97,56 %
04.12.2015 11:00 -0,1 C 98 % 1032,1 hPa 0,0 l/m 2,1 km/h (1 Bft) W 270 0 min 0,026 mm 0,0 UV-I 127 W/m -0,4 C -0,1 C 4,8 km/h (1 Bft) 98,31 %
04.12.2015 11:05 0,0 C 98 % 1032,2 hPa 0,0 l/m 3,8 km/h (1 Bft) S-SW 194 0 min 0,000 mm 0,0 UV-I 133 W/m -0,3 C 0,0 C 8,0 km/h (2 Bft) 98,33 %
04.12.2015 11:10 0,1 C 98 % 1032,2 hPa 0,0 l/m 5,9 km/h (2 Bft) S 170 0 min 0,000 mm 0,0 UV-I 137 W/m -0,2 C 0,1 C 9,7 km/h (2 Bft) 97,39 %
04.12.2015 11:15 0,2 C 98 % 1032,1 hPa 0,0 l/m 2,6 km/h (1 Bft) SW 225 0 min 0,000 mm 0,1 UV-I 139 W/m -0,1 C 0,2 C 8,0 km/h (2 Bft) 98,35 %
04.12.2015 11:20 0,4 C 98 % 1032,1 hPa 0,0 l/m 3,8 km/h (1 Bft) W 263 0 min 0,000 mm 0,1 UV-I 142 W/m 0,1 C 0,4 C 6,4 km/h (2 Bft) 98,29 %
04.12.2015 11:25 0,3 C 98 % 1032,0 hPa 0,0 l/m 2,6 km/h (1 Bft) W 278 0 min 0,000 mm 0,4 UV-I 146 W/m 0,0 C 0,3 C 6,4 km/h (2 Bft) 98,20 %
04.12.2015 11:30 0,4 C 98 % 1032,1 hPa 0,0 l/m 1,5 km/h (1 Bft) W 278 0 min 0,000 mm 0,1 UV-I 143 W/m 0,1 C 0,4 C 4,8 km/h (1 Bft) 99,06 %
04.12.2015 11:35 0,4 C 98 % 1032,1 hPa 0,0 l/m 0,5 km/h (0 Bft) W 278 0 min 0,000 mm 0,0 UV-I 120 W/m 0,1 C 0,4 C 3,2 km/h (1 Bft) 97,01 %
04.12.2015 11:40 0,7 C 98 % 1032,2 hPa 0,0 l/m 0,9 km/h (0 Bft) W 259 0 min 0,000 mm 0,0 UV-I 120 W/m 0,4 C 0,7 C 3,2 km/h (1 Bft) 99,08 %
04.12.2015 11:45 0,4 C 98 % 1032,2 hPa 0,0 l/m 3,6 km/h (1 Bft) W-SW 244 0 min 0,000 mm 0,3 UV-I 118 W/m 0,1 C 0,4 C 6,4 km/h (2 Bft) 95,83 %
04.12.2015 11:50 0,6 C 98 % 1032,1 hPa 0,0 l/m 0,8 km/h (0 Bft) W-SW 257 0 min 0,000 mm 0,3 UV-I 142 W/m 0,3 C 0,6 C 3,2 km/h (1 Bft) 100,00 %
04.12.2015 11:55 0,8 C 98 % 1032,1 hPa 0,0 l/m 1,1 km/h (1 Bft) N-NW 335 0 min 0,000 mm 0,0 UV-I 133 W/m 0,5 C 0,8 C 4,8 km/h (1 Bft) 97,48 %
04.12.2015 12:00 0,8 C 98 % 1032,1 hPa 0,0 l/m 0,6 km/h (0 Bft) NW 325 0 min 0,051 mm 0,1 UV-I 116 W/m 0,5 C 0,8 C 4,8 km/h (1 Bft) 98,29 %
04.12.2015 12:05 0,7 C 98 % 1032,1 hPa 0,0 l/m 0,7 km/h (0 Bft) NW 326 0 min 0,000 mm 0,5 UV-I 145 W/m 0,4 C 0,7 C 3,2 km/h (1 Bft) 96,61 %
04.12.2015 12:10 0,9 C 98 % 1032,1 hPa 0,0 l/m 0,9 km/h (0 Bft) NW 316 0 min 0,000 mm 0,1 UV-I 127 W/m 0,6 C 0,9 C 4,8 km/h (1 Bft) 97,17 %
04.12.2015 12:15 0,8 C 98 % 1032,2 hPa 0,0 l/m 0,1 km/h (0 Bft) NW 316 0 min 0,000 mm 0,0 UV-I 123 W/m 0,5 C 0,8 C 1,6 km/h (1 Bft) 95,00 %
04.12.2015 12:20 0,9 C 98 % 1032,3 hPa 0,0 l/m 0,6 km/h (0 Bft) NW 316 0 min 0,000 mm 0,4 UV-I 140 W/m 0,6 C 0,9 C 1,6 km/h (1 Bft) 97,52 %
04.12.2015 12:25 0,9 C 98 % 1032,4 hPa 0,0 l/m 1,1 km/h (1 Bft) N-NW 333 0 min 0,000 mm 0,2 UV-I 137 W/m 0,6 C 0,9 C 4,8 km/h (1 Bft) 96,58 %
04.12.2015 12:30 0,9 C 98 % 1032,3 hPa 0,0 l/m 0,6 km/h (0 Bft) NW 319 0 min 0,000 mm 0,2 UV-I 134 W/m 0,6 C 0,9 C 4,8 km/h (1 Bft) 96,61 %
04.12.2015 12:35 0,9 C 98 % 1032,4 hPa 0,0 l/m 0,4 km/h (0 Bft) NW 319 0 min 0,000 mm 0,5 UV-I 141 W/m 0,6 C 0,9 C 1,6 km/h (1 Bft) 96,61 %
04.12.2015 12:40 1,0 C 98 % 1032,3 hPa 0,0 l/m 0,5 km/h (0 Bft) NW 324 0 min 0,000 mm 0,3 UV-I 125 W/m 0,7 C 1,0 C 1,6 km/h (1 Bft) 96,58 %
04.12.2015 12:45 1,3 C 98 % 1032,3 hPa 0,0 l/m 0,4 km/h (0 Bft) NW 324 0 min 0,000 mm 0,2 UV-I 157 W/m 1,0 C 1,3 C 1,6 km/h (1 Bft) 99,17 %
04.12.2015 12:50 1,3 C 98 % 1032,2 hPa 0,0 l/m 0,1 km/h (0 Bft) NW 324 0 min 0,000 mm 0,0 UV-I 139 W/m 1,0 C 1,3 C 1,6 km/h (1 Bft) 98,17 %
04.12.2015 12:55 1,4 C 98 % 1032,3 hPa 0,0 l/m 0,8 km/h (0 Bft) N-NW 329 0 min 0,000 mm 0,0 UV-I 135 W/m 1,1 C 1,4 C 3,2 km/h (1 Bft) 99,15 %
04.12.2015 13:00 1,6 C 98 % 1032,3 hPa 0,0 l/m 0,9 km/h (0 Bft) N-NW 340 0 min 0,050 mm 0,0 UV-I 125 W/m 1,3 C 1,6 C 3,2 km/h (1 Bft) 98,31 %
04.12.2015 13:05 1,6 C 98 % 1032,5 hPa 0,0 l/m 1,0 km/h (0 Bft) N-NW 340 0 min 0,000 mm 0,0 UV-I 128 W/m 1,3 C 1,6 C 3,2 km/h (1 Bft) 100,00 %
04.12.2015 13:10 1,4 C 98 % 1032,5 hPa 0,0 l/m 0,5 km/h (0 Bft) N-NW 333 0 min 0,000 mm 0,0 UV-I 143 W/m 1,1 C 1,4 C 3,2 km/h (1 Bft) 97,46 %
04.12.2015 13:15 1,4 C 98 % 1032,5 hPa 0,0 l/m 0,6 km/h (0 Bft) N-NW 331 0 min 0,000 mm 0,0 UV-I 131 W/m 1,1 C 1,4 C 3,2 km/h (1 Bft) 100,00 %
04.12.2015 13:20 1,3 C 98 % 1032,6 hPa 0,0 l/m 0,5 km/h (0 Bft) N-NW 331 0 min 0,000 mm 0,0 UV-I 118 W/m 1,0 C 1,3 C 1,6 km/h (1 Bft) 99,15 %
04.12.2015 13:25 1,3 C 98 % 1032,5 hPa 0,0 l/m 1,0 km/h (0 Bft) N-NW 339 0 min 0,000 mm 0,0 UV-I 129 W/m 1,0 C 1,3 C 3,2 km/h (1 Bft) 96,61 %
04.12.2015 13:30 1,3 C 98 % 1032,5 hPa 0,0 l/m 0,3 km/h (0 Bft) N-NW 336 0 min 0,000 mm 0,0 UV-I 133 W/m 1,0 C 1,3 C 3,2 km/h (1 Bft) 99,11 %
04.12.2015 13:35 1,4 C 98 % 1032,3 hPa 0,0 l/m 0,1 km/h (0 Bft) N-NW 336 0 min 0,000 mm 0,0 UV-I 134 W/m 1,1 C 1,4 C 1,6 km/h (1 Bft) 99,19 %
04.12.2015 13:40 1,7 C 98 % 1032,6 hPa 0,0 l/m 0,3 km/h (0 Bft) N-NW 341 5 min 0,000 mm 0,0 UV-I 176 W/m 1,4 C 1,7 C 3,2 km/h (1 Bft) 91,53 %
04.12.2015 13:45 1,8 C 98 % 1032,6 hPa 0,0 l/m 1,2 km/h (1 Bft) NW 321 5 min 0,000 mm 0,0 UV-I 154 W/m 1,5 C 1,8 C 4,8 km/h (1 Bft) 90,57 %
04.12.2015 13:50 1,6 C 98 % 1032,6 hPa 0,0 l/m 0,6 km/h (0 Bft) NW 321 0 min 0,000 mm 0,0 UV-I 119 W/m 1,3 C 1,6 C 3,2 km/h (1 Bft) 88,89 %
04.12.2015 13:55 1,7 C 98 % 1032,7 hPa 0,0 l/m 0,4 km/h (0 Bft) NW 321 0 min 0,000 mm 0,0 UV-I 106 W/m 1,4 C 1,7 C 3,2 km/h (1 Bft) 97,46 %
04.12.2015 14:00 1,8 C 98 % 1032,7 hPa 0,0 l/m 0,8 km/h (0 Bft) W-NW 297 0 min 0,051 mm 0,0 UV-I 117 W/m 1,5 C 1,8 C 3,2 km/h (1 Bft) 100,00 %
04.12.2015 14:05 1,8 C 98 % 1032,7 hPa 0,0 l/m 0,5 km/h (0 Bft) W-NW 297 0 min 0,000 mm 0,0 UV-I 126 W/m 1,5 C 1,8 C 3,2 km/h (1 Bft) 98,31 %
04.12.2015 14:10 2,0 C 98 % 1032,7 hPa 0,0 l/m 1,9 km/h (1 Bft) W-SW 244 0 min 0,000 mm 0,0 UV-I 106 W/m 1,7 C 2,0 C 4,8 km/h (1 Bft) 99,17 %
04.12.2015 14:15 2,0 C 98 % 1032,8 hPa 0,0 l/m 0,3 km/h (0 Bft) W-SW 244 5 min 0,000 mm 0,0 UV-I 160 W/m 1,7 C 2,0 C 1,6 km/h (1 Bft) 96,67 %
04.12.2015 14:20 2,0 C 98 % 1032,8 hPa 0,0 l/m 3,5 km/h (1 Bft) W-SW 245 5 min 0,000 mm 0,0 UV-I 125 W/m 1,7 C 2,0 C 6,4 km/h (2 Bft) 93,58 %
04.12.2015 14:25 1,9 C 98 % 1032,9 hPa 0,0 l/m 2,0 km/h (1 Bft) W 281 5 min 0,000 mm 0,0 UV-I 136 W/m 1,6 C 1,9 C 4,8 km/h (1 Bft) 93,33 %
04.12.2015 14:30 2,1 C 98 % 1032,9 hPa 0,0 l/m 1,3 km/h (1 Bft) W 281 0 min 0,000 mm 0,0 UV-I 82 W/m 1,8 C 2,1 C 4,8 km/h (1 Bft) 93,39 %
04.12.2015 14:35 2,2 C 98 % 1032,8 hPa 0,0 l/m 0,7 km/h (0 Bft) W 281 0 min 0,000 mm 0,0 UV-I 83 W/m 1,9 C 2,2 C 3,2 km/h (1 Bft) 96,61 %
04.12.2015 14:40 2,3 C 98 % 1032,8 hPa 0,0 l/m 0,3 km/h (0 Bft) W 281 5 min 0,000 mm 0,0 UV-I 153 W/m 2,0 C 2,3 C 1,6 km/h (1 Bft) 96,58 %
04.12.2015 14:45 2,6 C 98 % 1032,7 hPa 0,0 l/m 0,1 km/h (0 Bft) W 281 5 min 0,000 mm 0,0 UV-I 172 W/m 2,3 C 2,6 C 1,6 km/h (1 Bft) 93,22 %
04.12.2015 14:50 2,6 C 98 % 1032,8 hPa 0,0 l/m 0,4 km/h (0 Bft) W-NW 286 5 min 0,000 mm 0,0 UV-I 148 W/m 2,3 C 2,6 C 3,2 km/h (1 Bft) 97,25 %
04.12.2015 14:55 2,5 C 98 % 1032,8 hPa 0,0 l/m 1,6 km/h (1 Bft) W-NW 284 5 min 0,000 mm 0,0 UV-I 118 W/m 2,2 C 2,5 C 4,8 km/h (1 Bft) 90,60 %
04.12.2015 15:00 2,6 C 98 % 1032,9 hPa 0,0 l/m 3,4 km/h (1 Bft) O-SO 116 5 min 0,051 mm 0,0 UV-I 97 W/m 2,3 C 2,6 C 4,8 km/h (1 Bft) 91,53 %
04.12.2015 15:05 2,4 C 98 % 1033,0 hPa 0,0 l/m 3,2 km/h (1 Bft) SO 146 0 min 0,000 mm 0,0 UV-I 44 W/m 2,1 C 2,4 C 6,4 km/h (2 Bft) 93,33 %
04.12.2015 15:10 2,3 C 98 % 1033,2 hPa 0,0 l/m 0,5 km/h (0 Bft) SO 146 0 min 0,000 mm 0,0 UV-I 48 W/m 2,0 C 2,3 C 3,2 km/h (1 Bft) 98,31 %
04.12.2015 15:15 2,3 C 98 % 1033,3 hPa 0,0 l/m 0,1 km/h (0 Bft) SO 146 0 min 0,000 mm 0,0 UV-I 42 W/m 2,0 C 2,3 C 1,6 km/h (1 Bft) 93,22 %
04.12.2015 15:20 2,3 C 98 % 1033,2 hPa 0,0 l/m 0,0 km/h (0 Bft) SO 146 0 min 0,000 mm 0,0 UV-I 28 W/m 2,0 C 2,3 C 0,0 km/h (0 Bft) 92,31 %
04.12.2015 15:25 2,3 C 98 % 1033,4 hPa 0,0 l/m 0,0 km/h (0 Bft) SO 146 0 min 0,000 mm 0,0 UV-I 19 W/m 2,0 C 2,3 C 1,6 km/h (1 Bft) 92,37 %
04.12.2015 15:30 2,4 C 98 % 1033,2 hPa 0,0 l/m 3,2 km/h (1 Bft) O-SO 110 0 min 0,000 mm 0,0 UV-I 18 W/m 2,1 C 2,4 C 9,7 km/h (2 Bft) 88,98 %
04.12.2015 15:35 2,5 C 98 % 1033,3 hPa 0,0 l/m 1,4 km/h (1 Bft) O-SO 110 0 min 0,000 mm 0,0 UV-I 20 W/m 2,2 C 2,5 C 4,8 km/h (1 Bft) 85,19 %
04.12.2015 15:40 2,4 C 98 % 1033,3 hPa 0,0 l/m 2,0 km/h (1 Bft) O-SO 110 0 min 0,000 mm 0,0 UV-I 16 W/m 2,1 C 2,4 C 4,8 km/h (1 Bft) 87,60 %
04.12.2015 15:45 2,5 C 98 % 1033,4 hPa 0,0 l/m 3,1 km/h (1 Bft) O-SO 110 0 min 0,000 mm 0,0 UV-I 12 W/m 2,2 C 2,5 C 4,8 km/h (1 Bft) 70,94 %
04.12.2015 15:50 2,5 C 98 % 1033,5 hPa 0,0 l/m 0,6 km/h (0 Bft) O-SO 110 0 min 0,000 mm 0,0 UV-I 12 W/m 2,2 C 2,5 C 3,2 km/h (1 Bft) 81,36 %
04.12.2015 15:55 2,6 C 98 % 1033,5 hPa 0,0 l/m 0,0 km/h (0 Bft) O-SO 110 0 min 0,000 mm 0,0 UV-I 10 W/m 2,3 C 2,6 C 0,0 km/h (0 Bft) 81,51 %
04.12.2015 16:00 2,6 C 98 % 1033,5 hPa 0,0 l/m 0,0 km/h (0 Bft) O-SO 110 0 min 0,000 mm 0,0 UV-I 7 W/m 2,3 C 2,6 C 0,0 km/h (0 Bft) 90,60 %
04.12.2015 16:05 2,6 C 98 % 1033,6 hPa 0,0 l/m 0,0 km/h (0 Bft) O-SO 110 0 min 0,000 mm 0,0 UV-I 3 W/m 2,3 C 2,6 C 0,0 km/h (0 Bft) 98,31 %
04.12.2015 16:10 2,7 C 98 % 1033,7 hPa 0,0 l/m 0,6 km/h (0 Bft) O-SO 110 0 min 0,000 mm 0,0 UV-I 0 W/m 2,4 C 2,7 C 1,6 km/h (1 Bft) 99,15 %
04.12.2015 16:15 2,7 C 98 % 1033,7 hPa 0,0 l/m 0,2 km/h (0 Bft) O-SO 110 0 min 0,000 mm 0,0 UV-I 0 W/m 2,4 C 2,7 C 1,6 km/h (1 Bft) 97,44 %
04.12.2015 16:20 2,7 C 98 % 1033,7 hPa 0,0 l/m 0,5 km/h (0 Bft) O-SO 110 0 min 0,000 mm 0,0 UV-I 0 W/m 2,4 C 2,7 C 1,6 km/h (1 Bft) 96,61 %
04.12.2015 16:25 2,8 C 98 % 1033,8 hPa 0,0 l/m 0,7 km/h (0 Bft) O-SO 110 0 min 0,000 mm 0,0 UV-I 0 W/m 2,5 C 2,8 C 3,2 km/h (1 Bft) 94,02 %
04.12.2015 16:30 2,8 C 98 % 1033,8 hPa 0,0 l/m 0,0 km/h (0 Bft) O-SO 110 0 min 0,000 mm 0,0 UV-I 0 W/m 2,5 C 2,8 C 1,6 km/h (1 Bft) 98,31 %
04.12.2015 16:35 2,8 C 98 % 1033,8 hPa 0,0 l/m 0,2 km/h (0 Bft) O-SO 110 0 min 0,000 mm 0,0 UV-I 0 W/m 2,5 C 2,8 C 1,6 km/h (1 Bft) 96,33 %
04.12.2015 16:40 2,8 C 98 % 1033,9 hPa 0,0 l/m 1,4 km/h (1 Bft) O-SO 110 0 min 0,000 mm 0,0 UV-I 0 W/m 2,5 C 2,8 C 3,2 km/h (1 Bft) 95,73 %
04.12.2015 16:45 2,9 C 98 % 1034,0 hPa 0,0 l/m 0,6 km/h (0 Bft) O-SO 110 0 min 0,000 mm 0,0 UV-I 0 W/m 2,6 C 2,9 C 1,6 km/h (1 Bft) 96,61 %
04.12.2015 16:50 2,9 C 98 % 1034,1 hPa 0,0 l/m 1,4 km/h (1 Bft) O-SO 110 0 min 0,000 mm 0,0 UV-I 0 W/m 2,6 C 2,9 C 3,2 km/h (1 Bft) 98,35 %
04.12.2015 16:55 2,9 C 98 % 1034,0 hPa 0,0 l/m 0,7 km/h (0 Bft) O-SO 115 0 min 0,000 mm 0,0 UV-I 0 W/m 2,6 C 2,9 C 3,2 km/h (1 Bft) 100,00 %
04.12.2015 17:00 3,0 C 98 % 1034,1 hPa 0,0 l/m 1,4 km/h (1 Bft) S-SO 158 0 min 0,000 mm 0,0 UV-I 0 W/m 2,7 C 3,0 C 4,8 km/h (1 Bft) 97,46 %
04.12.2015 17:05 3,1 C 98 % 1034,1 hPa 0,0 l/m 1,9 km/h (1 Bft) S-SO 160 0 min 0,000 mm 0,0 UV-I 0 W/m 2,8 C 3,1 C 6,4 km/h (2 Bft) 100,00 %
04.12.2015 17:10 3,1 C 98 % 1034,2 hPa 0,0 l/m 2,9 km/h (1 Bft) S-SO 161 0 min 0,000 mm 0,0 UV-I 0 W/m 2,8 C 3,1 C 6,4 km/h (2 Bft) 99,08 %
04.12.2015 17:15 3,2 C 98 % 1034,2 hPa 0,0 l/m 3,0 km/h (1 Bft) S-SO 165 0 min 0,000 mm 0,0 UV-I 0 W/m 2,9 C 3,2 C 6,4 km/h (2 Bft) 100,00 %
04.12.2015 17:20 3,2 C 98 % 1034,4 hPa 0,0 l/m 3,1 km/h (1 Bft) S 182 0 min 0,000 mm 0,0 UV-I 0 W/m 2,9 C 3,2 C 6,4 km/h (2 Bft) 98,33 %
04.12.2015 17:25 3,2 C 98 % 1034,4 hPa 0,0 l/m 2,4 km/h (1 Bft) S 183 0 min 0,000 mm 0,0 UV-I 0 W/m 2,9 C 3,2 C 4,8 km/h (1 Bft) 98,35 %
04.12.2015 17:30 3,3 C 98 % 1034,4 hPa 0,0 l/m 2,4 km/h (1 Bft) S 181 0 min 0,000 mm 0,0 UV-I 0 W/m 3,0 C 3,3 C 4,8 km/h (1 Bft) 98,29 %
04.12.2015 17:35 3,3 C 98 % 1034,5 hPa 0,0 l/m 0,6 km/h (0 Bft) S 181 0 min 0,000 mm 0,0 UV-I 0 W/m 3,0 C 3,3 C 3,2 km/h (1 Bft) 99,15 %
04.12.2015 17:40 3,3 C 98 % 1034,5 hPa 0,0 l/m 0,8 km/h (0 Bft) S 181 0 min 0,000 mm 0,0 UV-I 0 W/m 3,0 C 3,3 C 3,2 km/h (1 Bft) 97,17 %
04.12.2015 17:45 3,3 C 97 % 1034,6 hPa 0,0 l/m 2,0 km/h (1 Bft) S 181 0 min 0,000 mm 0,0 UV-I 0 W/m 2,9 C 3,3 C 3,2 km/h (1 Bft) 99,15 %
04.12.2015 17:50 3,4 C 97 % 1034,6 hPa 0,0 l/m 1,6 km/h (1 Bft) S 181 0 min 0,000 mm 0,0 UV-I 0 W/m 3,0 C 3,4 C 3,2 km/h (1 Bft) 98,41 %
04.12.2015 17:55 3,4 C 97 % 1034,6 hPa 0,0 l/m 2,0 km/h (1 Bft) S 182 0 min 0,000 mm 0,0 UV-I 0 W/m 3,0 C 3,4 C 3,2 km/h (1 Bft) 98,31 %
04.12.2015 18:00 3,4 C 97 % 1034,7 hPa 0,0 l/m 1,1 km/h (1 Bft) S 182 0 min 0,000 mm 0,0 UV-I 0 W/m 3,0 C 3,4 C 3,2 km/h (1 Bft) 99,05 %
04.12.2015 18:05 3,4 C 97 % 1034,8 hPa 0,0 l/m 0,6 km/h (0 Bft) S 182 0 min 0,000 mm 0,0 UV-I 0 W/m 3,0 C 3,4 C 1,6 km/h (1 Bft) 99,21 %
04.12.2015 18:10 3,4 C 97 % 1034,8 hPa 0,0 l/m 1,1 km/h (1 Bft) S 182 0 min 0,000 mm 0,0 UV-I 0 W/m 3,0 C 3,4 C 3,2 km/h (1 Bft) 97,32 %
04.12.2015 18:15 3,4 C 98 % 1034,9 hPa 0,0 l/m 0,0 km/h (0 Bft) S 182 0 min 0,000 mm 0,0 UV-I 0 W/m 3,1 C 3,4 C 1,6 km/h (1 Bft) 97,44 %
04.12.2015 18:20 3,5 C 98 % 1035,0 hPa 0,0 l/m 0,1 km/h (0 Bft) S 182 0 min 0,000 mm 0,0 UV-I 0 W/m 3,2 C 3,5 C 1,6 km/h (1 Bft) 96,61 %
04.12.2015 18:25 3,5 C 98 % 1035,0 hPa 0,0 l/m 0,1 km/h (0 Bft) S 182 0 min 0,000 mm 0,0 UV-I 0 W/m 3,2 C 3,5 C 1,6 km/h (1 Bft) 98,29 %
04.12.2015 18:30 3,5 C 98 % 1035,1 hPa 0,0 l/m 0,1 km/h (0 Bft) S 182 0 min 0,000 mm 0,0 UV-I 0 W/m 3,2 C 3,5 C 1,6 km/h (1 Bft) 97,46 %
04.12.2015 18:35 3,5 C 98 % 1035,2 hPa 0,0 l/m 0,5 km/h (0 Bft) W 271 0 min 0,000 mm 0,0 UV-I 0 W/m 3,2 C 3,5 C 3,2 km/h (1 Bft) 95,80 %
04.12.2015 18:40 3,6 C 98 % 1035,3 hPa 0,0 l/m 0,1 km/h (0 Bft) W 273 0 min 0,000 mm 0,0 UV-I 0 W/m 3,3 C 3,6 C 1,6 km/h (1 Bft) 94,02 %
04.12.2015 18:45 3,6 C 98 % 1035,4 hPa 0,0 l/m 1,3 km/h (1 Bft) NO 45 0 min 0,000 mm 0,0 UV-I 0 W/m 3,3 C 3,6 C 4,8 km/h (1 Bft) 97,46 %
04.12.2015 18:50 3,3 C 97 % 1035,4 hPa 0,0 l/m 6,0 km/h (2 Bft) NO 35 0 min 0,000 mm 0,0 UV-I 0 W/m 2,9 C 3,3 C 8,0 km/h (2 Bft) 97,46 %
04.12.2015 18:55 3,2 C 97 % 1035,4 hPa 0,0 l/m 4,8 km/h (1 Bft) NO 43 0 min 0,000 mm 0,0 UV-I 0 W/m 2,8 C 3,2 C 6,4 km/h (2 Bft) 98,15 %
04.12.2015 19:00 3,2 C 97 % 1035,5 hPa 0,0 l/m 2,7 km/h (1 Bft) NO 42 0 min 0,000 mm 0,0 UV-I 0 W/m 2,8 C 3,2 C 4,8 km/h (1 Bft) 97,52 %
04.12.2015 19:05 3,2 C 97 % 1035,5 hPa 0,0 l/m 1,4 km/h (1 Bft) NO 42 0 min 0,000 mm 0,0 UV-I 0 W/m 2,8 C 3,2 C 3,2 km/h (1 Bft) 97,46 %
04.12.2015 19:10 3,2 C 97 % 1035,5 hPa 0,0 l/m 0,6 km/h (0 Bft) NO 43 0 min 0,000 mm 0,0 UV-I 0 W/m 2,8 C 3,2 C 3,2 km/h (1 Bft) 96,58 %
04.12.2015 19:15 3,3 C 97 % 1035,5 hPa 0,0 l/m 1,4 km/h (1 Bft) SO 127 0 min 0,000 mm 0,0 UV-I 0 W/m 2,9 C 3,3 C 3,2 km/h (1 Bft) 98,31 %
04.12.2015 19:20 3,4 C 98 % 1035,5 hPa 0,0 l/m 1,2 km/h (1 Bft) SO 146 0 min 0,000 mm 0,0 UV-I 0 W/m 3,1 C 3,4 C 4,8 km/h (1 Bft) 99,17 %
04.12.2015 19:25 3,5 C 98 % 1035,6 hPa 0,0 l/m 1,5 km/h (1 Bft) S-SO 153 0 min 0,000 mm 0,0 UV-I 0 W/m 3,2 C 3,5 C 3,2 km/h (1 Bft) 99,15 %
04.12.2015 19:30 3,6 C 97 % 1035,7 hPa 0,0 l/m 2,6 km/h (1 Bft) S-SO 161 0 min 0,000 mm 0,0 UV-I 0 W/m 3,2 C 3,6 C 6,4 km/h (2 Bft) 99,08 %
04.12.2015 19:35 3,7 C 97 % 1035,7 hPa 0,0 l/m 2,5 km/h (1 Bft) S-SO 159 0 min 0,000 mm 0,0 UV-I 0 W/m 3,3 C 3,7 C 6,4 km/h (2 Bft) 97,50 %
04.12.2015 19:40 3,7 C 97 % 1035,8 hPa 0,0 l/m 2,0 km/h (1 Bft) S 176 0 min 0,000 mm 0,0 UV-I 0 W/m 3,3 C 3,7 C 4,8 km/h (1 Bft) 99,15 %
04.12.2015 19:45 3,8 C 97 % 1035,8 hPa 0,0 l/m 3,7 km/h (1 Bft) S 180 0 min 0,000 mm 0,0 UV-I 0 W/m 3,4 C 3,8 C 8,0 km/h (2 Bft) 99,17 %
04.12.2015 19:50 3,9 C 97 % 1035,8 hPa 0,0 l/m 5,6 km/h (1 Bft) S 184 0 min 0,000 mm 0,0 UV-I 0 W/m 3,5 C 3,9 C 9,7 km/h (2 Bft) 100,00 %
04.12.2015 19:55 4,0 C 96 % 1035,9 hPa 0,0 l/m 5,4 km/h (1 Bft) S 175 0 min 0,000 mm 0,0 UV-I 0 W/m 3,4 C 4,0 C 8,0 km/h (2 Bft) 98,31 %
04.12.2015 20:00 4,1 C 96 % 1035,9 hPa 0,0 l/m 4,0 km/h (1 Bft) S 186 0 min 0,000 mm 0,0 UV-I 0 W/m 3,5 C 4,1 C 4,8 km/h (1 Bft) 98,29 %
04.12.2015 20:05 4,2 C 96 % 1035,9 hPa 0,0 l/m 3,2 km/h (1 Bft) S 185 0 min 0,000 mm 0,0 UV-I 0 W/m 3,6 C 4,2 C 4,8 km/h (1 Bft) 98,35 %
04.12.2015 20:10 4,2 C 96 % 1035,9 hPa 0,0 l/m 3,7 km/h (1 Bft) S-SW 192 0 min 0,000 mm 0,0 UV-I 0 W/m 3,6 C 4,2 C 6,4 km/h (2 Bft) 100,00 %
04.12.2015 20:15 4,2 C 96 % 1035,9 hPa 0,0 l/m 2,5 km/h (1 Bft) S 187 0 min 0,000 mm 0,0 UV-I 0 W/m 3,6 C 4,2 C 4,8 km/h (1 Bft) 99,17 %
04.12.2015 20:20 4,3 C 96 % 1035,8 hPa 0,0 l/m 3,2 km/h (1 Bft) S 184 0 min 0,000 mm 0,0 UV-I 0 W/m 3,7 C 4,3 C 4,8 km/h (1 Bft) 97,46 %
04.12.2015 20:25 4,3 C 95 % 1035,9 hPa 0,0 l/m 3,2 km/h (1 Bft) S 182 0 min 0,000 mm 0,0 UV-I 0 W/m 3,6 C 4,3 C 4,8 km/h (1 Bft) 95,73 %
04.12.2015 20:30 4,3 C 95 % 1036,0 hPa 0,0 l/m 2,2 km/h (1 Bft) S 190 0 min 0,000 mm 0,0 UV-I 0 W/m 3,6 C 4,3 C 4,8 km/h (1 Bft) 96,61 %
04.12.2015 20:35 4,3 C 95 % 1036,1 hPa 0,0 l/m 2,2 km/h (1 Bft) S-SW 213 0 min 0,000 mm 0,0 UV-I 0 W/m 3,6 C 4,3 C 4,8 km/h (1 Bft) 97,17 %
04.12.2015 20:40 4,3 C 96 % 1036,1 hPa 0,0 l/m 0,6 km/h (0 Bft) S-SW 213 0 min 0,000 mm 0,0 UV-I 0 W/m 3,7 C 4,3 C 3,2 km/h (1 Bft) 95,83 %
04.12.2015 20:45 4,4 C 96 % 1036,1 hPa 0,0 l/m 0,1 km/h (0 Bft) S-SW 213 0 min 0,000 mm 0,0 UV-I 0 W/m 3,8 C 4,4 C 1,6 km/h (1 Bft) 98,31 %
04.12.2015 20:50 4,4 C 95 % 1036,1 hPa 0,0 l/m 1,2 km/h (1 Bft) S-SW 213 0 min 0,000 mm 0,0 UV-I 0 W/m 3,7 C 4,4 C 3,2 km/h (1 Bft) 95,87 %
04.12.2015 20:55 4,3 C 95 % 1036,3 hPa 0,0 l/m 2,3 km/h (1 Bft) N 5 0 min 0,000 mm 0,0 UV-I 0 W/m 3,6 C 4,3 C 4,8 km/h (1 Bft) 97,50 %
04.12.2015 21:00 4,3 C 96 % 1036,2 hPa 0,0 l/m 2,5 km/h (1 Bft) NO 50 0 min 0,000 mm 0,0 UV-I 0 W/m 3,7 C 4,3 C 4,8 km/h (1 Bft) 99,11 %
04.12.2015 21:05 4,3 C 96 % 1036,1 hPa 0,0 l/m 1,8 km/h (1 Bft) O 87 0 min 0,000 mm 0,0 UV-I 0 W/m 3,7 C 4,3 C 3,2 km/h (1 Bft) 96,67 %
04.12.2015 21:10 4,2 C 96 % 1036,2 hPa 0,0 l/m 0,1 km/h (0 Bft) O 87 0 min 0,000 mm 0,0 UV-I 0 W/m 3,6 C 4,2 C 1,6 km/h (1 Bft) 98,33 %
04.12.2015 21:15 4,3 C 96 % 1036,2 hPa 0,0 l/m 0,0 km/h (0 Bft) O 87 0 min 0,000 mm 0,0 UV-I 0 W/m 3,7 C 4,3 C 1,6 km/h (1 Bft) 97,25 %
04.12.2015 21:20 4,3 C 96 % 1036,2 hPa 0,0 l/m 0,0 km/h (0 Bft) O 87 0 min 0,000 mm 0,0 UV-I 0 W/m 3,7 C 4,3 C 0,0 km/h (0 Bft) 98,31 %
04.12.2015 21:25 4,2 C 96 % 1036,2 hPa 0,0 l/m 1,2 km/h (1 Bft) O 87 0 min 0,000 mm 0,0 UV-I 0 W/m 3,6 C 4,2 C 3,2 km/h (1 Bft) 99,17 %
04.12.2015 21:30 4,2 C 97 % 1036,3 hPa 0,0 l/m 1,6 km/h (1 Bft) O 86 0 min 0,000 mm 0,0 UV-I 0 W/m 3,8 C 4,2 C 3,2 km/h (1 Bft) 99,15 %
04.12.2015 21:35 4,1 C 96 % 1036,2 hPa 0,0 l/m 2,3 km/h (1 Bft) O-NO 64 0 min 0,000 mm 0,0 UV-I 0 W/m 3,5 C 4,1 C 4,8 km/h (1 Bft) 98,29 %
04.12.2015 21:40 4,0 C 96 % 1036,3 hPa 0,0 l/m 3,2 km/h (1 Bft) O-NO 62 0 min 0,000 mm 0,0 UV-I 0 W/m 3,4 C 4,0 C 4,8 km/h (1 Bft) 98,31 %
04.12.2015 21:45 3,9 C 96 % 1036,3 hPa 0,0 l/m 3,3 km/h (1 Bft) NO 52 0 min 0,000 mm 0,0 UV-I 0 W/m 3,3 C 3,9 C 4,8 km/h (1 Bft) 100,00 %
04.12.2015 21:50 3,8 C 97 % 1036,4 hPa 0,0 l/m 2,9 km/h (1 Bft) NO 36 0 min 0,000 mm 0,0 UV-I 0 W/m 3,4 C 3,8 C 4,8 km/h (1 Bft) 98,29 %
04.12.2015 21:55 3,8 C 97 % 1036,4 hPa 0,0 l/m 3,7 km/h (1 Bft) NO 39 0 min 0,000 mm 0,0 UV-I 0 W/m 3,4 C 3,8 C 6,4 km/h (2 Bft) 98,35 %
04.12.2015 22:00 3,8 C 97 % 1036,3 hPa 0,0 l/m 2,3 km/h (1 Bft) NO 39 0 min 0,000 mm 0,0 UV-I 0 W/m 3,4 C 3,8 C 3,2 km/h (1 Bft) 98,29 %
04.12.2015 22:05 3,8 C 97 % 1036,3 hPa 0,0 l/m 1,2 km/h (1 Bft) NO 39 0 min 0,000 mm 0,0 UV-I 0 W/m 3,4 C 3,8 C 3,2 km/h (1 Bft) 100,00 %
04.12.2015 22:10 3,9 C 97 % 1036,3 hPa 0,0 l/m 0,2 km/h (0 Bft) NO 39 0 min 0,000 mm 0,0 UV-I 0 W/m 3,5 C 3,9 C 3,2 km/h (1 Bft) 99,15 %
04.12.2015 22:15 3,9 C 97 % 1036,2 hPa 0,0 l/m 0,1 km/h (0 Bft) NO 39 0 min 0,000 mm 0,0 UV-I 0 W/m 3,5 C 3,9 C 1,6 km/h (1 Bft) 99,15 %
04.12.2015 22:20 4,0 C 97 % 1036,2 hPa 0,0 l/m 1,3 km/h (1 Bft) O-SO 111 0 min 0,000 mm 0,0 UV-I 0 W/m 3,6 C 4,0 C 3,2 km/h (1 Bft) 100,00 %
04.12.2015 22:25 4,1 C 97 % 1036,1 hPa 0,0 l/m 0,9 km/h (0 Bft) SO 129 0 min 0,000 mm 0,0 UV-I 0 W/m 3,7 C 4,1 C 3,2 km/h (1 Bft) 96,58 %
04.12.2015 22:30 4,2 C 97 % 1036,1 hPa 0,0 l/m 1,3 km/h (1 Bft) SO 129 0 min 0,000 mm 0,0 UV-I 0 W/m 3,8 C 4,2 C 3,2 km/h (1 Bft) 96,61 %
04.12.2015 22:35 4,3 C 97 % 1035,9 hPa 0,0 l/m 1,5 km/h (1 Bft) SO 134 0 min 0,000 mm 0,0 UV-I 0 W/m 3,9 C 4,3 C 3,2 km/h (1 Bft) 97,46 %
04.12.2015 22:40 4,3 C 97 % 1036,0 hPa 0,0 l/m 1,2 km/h (1 Bft) S-SO 158 0 min 0,000 mm 0,0 UV-I 0 W/m 3,9 C 4,3 C 4,8 km/h (1 Bft) 94,87 %
04.12.2015 22:45 4,3 C 96 % 1035,9 hPa 0,0 l/m 1,1 km/h (1 Bft) S-SO 158 0 min 0,000 mm 0,0 UV-I 0 W/m 3,7 C 4,3 C 3,2 km/h (1 Bft) 96,61 %
04.12.2015 22:50 4,3 C 96 % 1036,0 hPa 0,0 l/m 1,1 km/h (1 Bft) W-SW 247 0 min 0,000 mm 0,0 UV-I 0 W/m 3,7 C 4,3 C 3,2 km/h (1 Bft) 97,25 %
04.12.2015 22:55 4,3 C 97 % 1036,0 hPa 0,0 l/m 0,2 km/h (0 Bft) W-SW 247 0 min 0,000 mm 0,0 UV-I 0 W/m 3,9 C 4,3 C 1,6 km/h (1 Bft) 96,58 %
04.12.2015 23:00 4,3 C 97 % 1036,1 hPa 0,0 l/m 0,1 km/h (0 Bft) W-SW 247 0 min 0,000 mm 0,0 UV-I 0 W/m 3,9 C 4,3 C 1,6 km/h (1 Bft) 97,46 %
04.12.2015 23:05 4,3 C 97 % 1036,1 hPa 0,0 l/m 0,0 km/h (0 Bft) W-SW 247 0 min 0,000 mm 0,0 UV-I 0 W/m 3,9 C 4,3 C 1,6 km/h (1 Bft) 98,35 %
04.12.2015 23:10 4,4 C 97 % 1036,0 hPa 0,0 l/m 0,1 km/h (0 Bft) W-SW 247 0 min 0,000 mm 0,0 UV-I 0 W/m 4,0 C 4,4 C 1,6 km/h (1 Bft) 98,29 %
04.12.2015 23:15 4,4 C 97 % 1035,9 hPa 0,0 l/m 2,0 km/h (1 Bft) W-SW 247 0 min 0,000 mm 0,0 UV-I 0 W/m 4,0 C 4,4 C 4,8 km/h (1 Bft) 99,17 %
04.12.2015 23:20 4,4 C 97 % 1035,9 hPa 0,0 l/m 3,1 km/h (1 Bft) W-SW 247 0 min 0,000 mm 0,0 UV-I 0 W/m 4,0 C 4,4 C 4,8 km/h (1 Bft) 99,07 %
04.12.2015 23:25 4,4 C 97 % 1035,9 hPa 0,0 l/m 2,0 km/h (1 Bft) W-SW 247 0 min 0,000 mm 0,0 UV-I 0 W/m 4,0 C 4,4 C 3,2 km/h (1 Bft) 100,00 %
04.12.2015 23:30 4,3 C 96 % 1035,8 hPa 0,0 l/m 0,6 km/h (0 Bft) W-SW 247 0 min 0,000 mm 0,0 UV-I 0 W/m 3,7 C 4,3 C 3,2 km/h (1 Bft) 99,15 %
04.12.2015 23:35 4,3 C 97 % 1035,8 hPa 0,0 l/m 0,8 km/h (0 Bft) W 261 0 min 0,000 mm 0,0 UV-I 0 W/m 3,9 C 4,3 C 3,2 km/h (1 Bft) 98,33 %
04.12.2015 23:40 4,3 C 97 % 1035,9 hPa 0,0 l/m 1,6 km/h (1 Bft) W 265 0 min 0,000 mm 0,0 UV-I 0 W/m 3,9 C 4,3 C 3,2 km/h (1 Bft) 100,00 %
04.12.2015 23:45 4,3 C 97 % 1036,0 hPa 0,0 l/m 1,0 km/h (0 Bft) O-NO 61 0 min 0,000 mm 0,0 UV-I 0 W/m 3,9 C 4,3 C 3,2 km/h (1 Bft) 99,15 %
04.12.2015 23:50 4,3 C 97 % 1036,0 hPa 0,0 l/m 2,5 km/h (1 Bft) N 11 0 min 0,000 mm 0,0 UV-I 0 W/m 3,9 C 4,3 C 8,0 km/h (2 Bft) 100,00 %
04.12.2015 23:55 4,3 C 96 % 1036,0 hPa 0,0 l/m 3,0 km/h (1 Bft) N-NO 16 0 min 0,000 mm 0,0 UV-I 0 W/m 3,7 C 4,3 C 6,4 km/h (2 Bft) 99,15 %
_ Min-Zeit 07:35 20:25 04:10 - 00:55 - - - - - - 07:35 06:25 00:55 15:45
Minimum _ -1,1 C 95 % 1028,0 hPa - 0,0 km/h (0 Bft) - - - - - - -1,4 C -3,8 C 0,0 km/h (0 Bft) 70,94 %
_ Max-Zeit 20:45 02:15 21:50 09:40 06:25 - - 13:40 12:00 12:05 13:40 23:10 20:45 06:25 00:35
Maximum _ 4,4 C 98 % 1036,4 hPa 0,2 l/m 9,4 km/h
S (2 Bft)
- - 5 min 0,051 mm 0,5 UV-I 176 W/m 4,0 C 4,4 C 16,1 km/h
S-SO (3 Bft)
100,00 %
Durchschnitt _ 1,3 C 98 % 1032,2 hPa #0,2 l/m 2,0 km/h (1 Bft) S - #50 min. #0,254 mm 0,3 UV-I 90 W/m 1,0 C 1,3 C 4,5 km/h (1 Bft) 97,43 %